フィエチジョシュ彗星

C/2020 H3 ( Wierzchos )

English version
Home page
Updated on June 18, 2021

---------------------------------------------------------------------

・ プロフィール

発見日 2020年4月25日
発見光度 19.1等
発見者 Kacper W. Wierzchos (Mount Lemmon Survey)

・ 写真集

・ 軌道要素

Epoch 2020 May 31.0 TT = JDT 2459000.5
T 2020 June 3.56799 TT                                  Rudenko
q   2.3043835            (2000.0)            P               Q
z  -0.0009687      Peri.   29.60812     +0.23776826     +0.39829351
 +/-0.0000101      Node   270.56946     -0.96966660     +0.15055599
e   1.0022322      Incl.   62.36856     +0.05668275     +0.90481776
From 129 observations 2020 Apr. 25-Aug. 26, mean residual 0".6.

・ 光度変化

        m1 = 13.5 + 5 logΔ + 10.0 log r

---------------------------------------------------------------------

軌道要素はM.P.E.C. 2020-S188に掲載されたものです。
光度グラフはComet for Windowsで作成したものです。

---------------------------------------------------------------------

Copyright(C) Seiichi Yoshida (comet@aerith.net). All rights reserved.